Starlink 32279

operational
NORAD ID: 61003 Int'l Des: 2024-158 Owner: SPXS Country: US Constellation: starlink
LEOCIRCULAR

关于 Starlink 32279

正在加载描述...

实时位置

正在加载3D地球...

即将过境

高度历史

Altitude vs Time

uPlot chart will show altitude changes over time

两行轨道根数

1 61003U 24158P 25257.16391645 -.00000606 00000-0 -83536-5 0 9990
2 61003 53.1602 165.5270 0001316 77.6755 282.4393 15.30189570 58624
Epoch: Sep 14, 2025 • Age: 26 hours

当前状态

高度 490.9 km
速度 7.62 km/s
星下点 -44.40°S, 24.33°E
发射日期 Sep 5, 2024
运行时间 1 years
类型 internet

技术详情

分类 Payload
质量 730.00 kg
干质量 700.00 kg
总质量 730.00 kg
长度 0.30 m
直径 4.10 m
跨度 29.00 m
形状 Box + pan
制造商 SPXS
平台类型 Starlink V2M
阶段状态 In Orbit
所有者/国家 SPXS/US

大型星座

Loading constellations...